Terug naar catalogus

COSMOS 2110

GLONASS

ActiefNavigatieMEO
NORAD 21007·PAYLOAD·🇷🇺 Russia

Gelanceerd Dec 8, 1990 vanaf Baikonur Cosmodrome

Loading…

Volgende Passages (komende 24 uur)

TLE

VersSource: Space-Track

Epoch: Sep 11, 2026, 15:17 UTC

1 21007U 90110B   26254.63727700  .00000002  00000-0  00000-0 0  9994
2 21007  64.9932  68.6077 0043038 200.4191 159.5805  2.13101425278317

Volg COSMOS 2110 in realtime met AllMySat

Download on the App Store